STARLINK-11508, 62515

Orbit data source: Space-Track

STARLINK-11508, 62515 is a payload satellite owned by SpaceX/Seattle (US) in LEO that was launched on Wed, 08 Jan 2025 UTC via an FALCON 9 launch vehicle from the Air Force Eastern Test Range (AFETR). Payload-class satellites include a variety of spacecraft equipped with specific instruments for various scientific and technological missions. These include communications satellites like Starlink; space stations such as the ISS; scientific satellites like the Hubble; Earth observation satellites from companies like Planet Labs, Umbra, and HawkEye 360; GPS; miniature CubeSats for education and research; and military/defense satellites.

Loading next visibility...
Identifier
62515, 2025-004E
Orbit
LEO
Country
Flag of USUS
Related business
Manufacturer
SpaceX/Seattle
Mission
Operational Commercial Communications
Bus & Motor
STARLINK V2MD, Unknown motor
Mass
960 kg wet, ~910 kg dry
Launch date (UTC)
2025-01-08 (1 year ago)
Launch vehicle
FALCON 9
Launch site
Air Force Eastern Test Range (AFETR)
Object type
Payload
Rocket body
Debris
Shape & HBR
Box + 2 Pan, 18.1 m
Radar Cross Section
36.964 m², Large (>1 m²)

Expand to show TLE details & history
Last TLE update: 19 hours ago

TLE from 19 hours ago
0 STARLINK-11508
1 62515U 25004E   26094.84237294  .00334613  00000-0  25058-2 0  9992
2 62515  43.0006 272.9135 0001140 305.3617  54.7144 15.70857058 71328
Epoch: 2026-04-04T20:13Z
TLE epoch observation values (Epoch: 2026-04-04T20:13:01.022Z)
Latitude
Longitude
136.5029°
Altitude
355.774 km
Speed
7.698 km/s
True Right ascension
18h 11m 39s
True Declination
0° 00' 00"
Sunlit
Object was in daylight at epoch
Visualization orbit readout
Latitude
Unknown
Longitude
Unknown
Altitude
Unknown
Speed
Unknown
Apparent Right ascension
Unknown
Apparent Declination
Unknown
Sunlit
N/A
Visualization observer readout
Local Sidereal Time
21:14:13
Azimuth
Unknown
Elevation
Unknown
Doppler factor
Unknown
Orbital elements
Apogee altitude
359.196 km
Perigee altitude
357.66 km
Semi-major axis
6,736.565 km
Eccentricity
0.00011
Inclination
43.0006°
RAAN
272.9135°
Arg. of periapsis
305.3617°
True anomaly
54.72506°
Mean anomaly
54.7144°
Eccentric anomaly
54.71973°
Mean motion
3.92541 °/min
Orbital period
91.71 mins
BSTAR
0.0025058
Loading maneuver chart data...
Computing Atmospheric mass density...
Loading historical data...
Loading historical data...
Loading historical data...
Loading historical data...
Loading historical data...
Loading historical data...
Loading historical data...

Documentation

Showing up to 5 results
|